Flag for Russia Weather past 2 weeks in Barnaul, Russia

Now
21 °F

Sunny.


Feels Like: 12 °F
Forecast: 16 / 24 °F
Wind: 8 mph from Southwest

Location: Barnaul Airport

Current Time: Mar 4, 2015 at 5:23:56 PM

Latest Report: Mar 4, 2015 at 4:30 PM


Visibility: 10 mi

Pressure: 30.30 "Hg

Humidity: 68%

Dew point: 12 °F

Location of BarnaulLocation

Historic Weather in Barnaul — Graph

°F

Barnaul temperature yesterday

Maximum temperature yesterday: 25 °F (at 2:00 PM)
Minimum temperature yesterday: 14 °F (at 1:00 AM)
Average temperature yesterday: 18 °F

Past Weeks' High & Low Weather Summary

 TemperatureHumidityPressure
High28 °F (Mar 1, 1:00 PM)93% (Feb 17, 6:30 PM)30.66 "Hg (Feb 17, 6:30 PM)
Low-20 °F (Feb 19, 5:00 AM)37% (Feb 21, 6:30 PM)29.89 "Hg (Feb 25, 4:00 PM)
Average14 °F79%30.29 "Hg
* Reported Feb 17 4:00 PM — Mar 4 4:00 PM, Barnaul, Weather by CustomWeather, © 2015

Note: Actual official high and low records may vary slightly from our data, if they occured in-between our weather recording intervals... More about our weather records

Advertising

Barnaul weather history for previous 24 hours

 ConditionsComfort  
Time TempWeatherWind HumidityBarometerVisibility
4:00 PM
Wed, Mar 4
19 °FSunny.8 mph73%30.30 "Hg10 mi
3:30 PM21 °FSunny.6 mph68%30.30 "Hg10 mi
3:00 PM19 °FSunny.6 mph73%30.30 "Hg10 mi
2:30 PM19 °FSunny.8 mph68%30.30 "Hg10 mi
2:00 PM19 °FSunny.6 mph68%30.30 "Hg10 mi
1:30 PM18 °FSunny.8 mph73%30.30 "Hg10 mi
1:00 PM18 °FSunny.6 mph73%30.30 "Hg10 mi
12:30 PM18 °FScattered clouds.6 mph73%30.30 "HgN/A
12:00 PM18 °FPartly sunny.6 mph73%30.30 "HgN/A
11:30 AM16 °FPartly sunny.6 mph79%30.30 "HgN/A
11:00 AM16 °FPartly sunny.6 mph79%30.30 "HgN/A
10:30 AM14 °FLight snow. Partly sunny.6 mph85%30.30 "HgN/A
10:00 AM14 °FLight snow. Partly sunny.6 mph85%30.30 "HgN/A
9:30 AM14 °FLight snow. Partly sunny.8 mph79%30.30 "HgN/A
9:00 AM14 °FLight snow. Partly sunny.6 mph79%30.30 "HgN/A
8:30 AM12 °FLight snow. Partly sunny.6 mph85%30.30 "HgN/A
8:00 AM12 °FLight snow. Partly sunny.6 mph85%30.30 "HgN/A
7:30 AM12 °FLight snow. Partly sunny.6 mph85%30.30 "HgN/A
7:00 AM12 °FLight snow. Passing clouds.6 mph85%30.30 "HgN/A
6:30 AM12 °FLight snow. Passing clouds.6 mph85%30.30 "HgN/A
6:00 AM12 °FLight snow. Partly cloudy.3 mph85%30.30 "HgN/A
5:30 AM12 °FLight snow. Partly cloudy.6 mph85%30.30 "HgN/A
5:00 AM12 °FLight snow. Passing clouds.6 mph85%30.30 "HgN/A
4:30 AM12 °FLight snow. Passing clouds.3 mph85%30.30 "HgN/A
4:00 AM12 °FLight snow. Passing clouds.6 mph85%30.30 "HgN/A
3:30 AM12 °FLight snow. Passing clouds.6 mph85%30.30 "HgN/A
3:00 AM12 °FLight snow. Passing clouds.6 mph92%30.30 "HgN/A
2:30 AM12 °FLight snow. Passing clouds.8 mph92%30.30 "HgN/A
2:00 AM14 °FPassing clouds.8 mph85%30.30 "HgN/A
1:30 AM14 °FPassing clouds.6 mph85%30.30 "HgN/A
1:00 AM14 °FLight snow. Passing clouds.6 mph85%30.30 "HgN/A
12:30 AM14 °FLight snow. Passing clouds.8 mph85%30.30 "HgN/A
12:00 AM14 °FPassing clouds.8 mph92%30.30 "HgN/A
11:30 PM
Tue, Mar 3
16 °FLight snow. Passing clouds.8 mph86%30.30 "HgN/A
11:00 PM16 °FLight snow. Passing clouds.8 mph86%30.30 "HgN/A
10:30 PM18 °FLight snow. Passing clouds.8 mph79%30.30 "HgN/A
10:00 PM18 °FPartly cloudy.8 mph86%30.30 "HgN/A
9:30 PM18 °FClear.8 mph79%30.30 "Hg10 mi
9:00 PM18 °FClear.8 mph79%30.30 "Hg10 mi
8:30 PM16 °FClear.8 mph86%30.30 "Hg10 mi
8:00 PM18 °FClear.10 mph86%30.30 "Hg10 mi
7:30 PM19 °FClear.8 mph79%30.30 "Hg10 mi
7:00 PM19 °FClear.8 mph79%30.30 "Hg10 mi
6:30 PM19 °FClear.8 mph79%30.30 "Hg10 mi
6:00 PM19 °FSunny.10 mph79%30.30 "Hg10 mi
5:30 PM21 °FScattered clouds.10 mph80%30.30 "HgN/A
5:00 PM21 °FBroken clouds.13 mph80%30.30 "HgN/A
Weather by CustomWeather, © 2015

See weather overviewHow to use our weather pages